Regional Weather Roundup
Issued by NWS

Home | Current Version | Previous Version | Text Only | Print | Product List | Glossary Off
Versions: 1 2 3 4 5 6 7 8 9 10 11 12 13 14 15 16 17 18 19 20 21 22 23 24 25 26 27 28 29 30 31 32 33 34 35 36 37 38 39 40 41 42 43 44 45 46 47 48 49 50

000
ASUS43 KOAX 012202
RWRNE

WEATHER ROUNDUP FOR NEBRASKA
NATIONAL WEATHER SERVICE OMAHA NE
400 PM CST SUN FEB 01 2015

NOTES: SATELLITE DATA IS BEING USED TO AUGMENT CLOUD COVER ABOVE
       12000 FEET.
       "FAIR" INDICATES FEW OR NO CLOUDS BELOW 12,000 FEET WITH NO
       SIGNIFICANT WEATHER AND/OR OBSTRUCTIONS TO VISIBILITY.

  * THESE STATIONS DO NOT REPORT WEATHER SUCH AS RAIN...SNOW OR FOG.

NEZ001>004-019>022-054>056-012300-
NEBRASKA PANHANDLE

CITY           SKY/WX    TMP DP  RH WIND       PRES   REMARKS
SCOTTSBLUFF    MOSUNNY   22  11  62 NE6       30.22F WCI  14
ALLIANCE       SUNNY     13   3  64 N13       30.22F WCI  -2
CHADRON        SUNNY     13   7  77 SE3       30.28F
SIDNEY         MOSUNNY   15   7  70 N17       30.20F WCI  -1
$$

NEZ057>060-069>072-079>082-012300-
SOUTHWEST NEBRASKA

CITY           SKY/WX    TMP DP  RH WIND       PRES   REMARKS
NORTH PLATTE   SUNNY     10   0  63 N21G29    30.29R WCI  -9
IMPERIAL       MOSUNNY   13   3  64 N25       30.26R WCI  -7
MCCOOK         MOSUNNY   15   4  61 N22       30.28R WCI  -3
$$

NEZ005>010-023>029-035>040-094-012300-
NORTH CENTRAL NEBRASKA

CITY           SKY/WX    TMP DP  RH WIND       PRES   REMARKS
VALENTINE      MOSUNNY    5  -3  69 N13G22    30.32S WCI -12
BROKEN BOW     MOSUNNY    7  -1  70 N26G33    30.26R BLWGSNOWWCI -15
ORD            MIX PCPN   6  -2  69 N23G31    30.27R WCI -15
$$

NEZ041-046>049-061>064-073>077-083>087-012300-
SOUTH CENTRAL NEBRASKA

CITY           SKY/WX    TMP DP  RH WIND       PRES   REMARKS
GRAND ISLAND   LGT SNOW   7   1  76 N22G32    30.25R WCI -14
HASTINGS       SNOW       8   4  83 N28G35    30.23R VSB 1/2 WCI -14
KEARNEY *      CLOUDY     9   1  72 N24G31    30.24R WCI -12
$$

NEZ011>018-030>034-042>045-012300-
NORTHEAST NEBRASKA

CITY           SKY/WX    TMP DP  RH WIND       PRES   REMARKS
NORFOLK        LGT SNOW   6   0  76 N23G32    30.24R WCI -15
TEKAMAH        BLWGSNOW  13   7  77 N31G39    30.20R VSB 3/4 WCI  -9
$$

NEZ050>053-065>068-078-088>093-012300-
SOUTHEAST NEBRASKA

CITY           SKY/WX    TMP DP  RH WIND       PRES   REMARKS
LINCOLN        LGT SNOW  10   4  76 N23G38    30.20R WCI -10
OMAHA EPPLEY   CLOUDY    14   9  80 N31G43    30.15R BLWGSNOWWCI  -7
FALLS CITY     LGT SNOW  16  11  80 NW23G32   30.07R VSB 1   WCI  -2
$$

NEZ044-045-051>053-067-012300-
OMAHA AREA

CITY           SKY/WX    TMP DP  RH WIND       PRES   REMARKS
OMAHA EPPLEY   CLOUDY    14   9  80 N31G43    30.15R BLWGSNOWWCI  -7
$$



USA.gov is the U.S. government's official web portal to all federal, state and local government web resources and services.